STARLINK-2388, 47807

Orbit data source: Space-Track

STARLINK-2388, 47807 is a payload satellite owned by SpaceX/Seattle (US) in LEO that was launched on Thu, 11 Mar 2021 UTC via an FALCON 9 launch vehicle from the Air Force Eastern Test Range (AFETR). Payload-class satellites include a variety of spacecraft equipped with specific instruments for various scientific and technological missions. These include communications satellites like Starlink; space stations such as the ISS; scientific satellites like the Hubble; Earth observation satellites from companies like Planet Labs, Umbra, and HawkEye 360; GPS; miniature CubeSats for education and research; and military/defense satellites.

Loading next visibility...
Identifier
47807, 2021-018W
Orbit
LEO
Country
Flag of USUS
Related business
Manufacturer
SpaceX/Seattle
Mission
Operational Commercial Communications
Bus & Motor
STARLINK, Unknown motor
Mass
260 kg wet, ~248 kg dry
Launch date (UTC)
2021-03-11 (5 years ago)
Launch vehicle
FALCON 9
Launch site
Air Force Eastern Test Range (AFETR)
Object type
Payload
Rocket body
Debris
Shape & HBR
Box + 1 Pan, 10.1 m
Radar Cross Section
13.562 m², Large (>1 m²)

Expand to show TLE details & history
Last TLE update: 11 hours ago

TLE from 11 hours ago
0 STARLINK-2388
1 47807U 21018W   26035.50002314  .01204746  00000-0  55980-1 0  9991
2 47807  53.0970  10.3914 0001847  80.1763  39.5213 15.16504793  5778
Epoch: 2026-02-04T12:00Z
TLE epoch observation values (Epoch: 2026-02-04T12:00:01.999Z)
Latitude
44.12837°
Longitude
-170.70086°
Altitude
519.918 km
Speed
7.61 km/s
True Right ascension
09h 35m 53s
True Declination
43° 57' 02"
Sunlit
Object was in full shadow at epoch
Visualization orbit readout
Latitude
Unknown
Longitude
Unknown
Altitude
Unknown
Speed
Unknown
Apparent Right ascension
Unknown
Apparent Declination
Unknown
Sunlit
N/A
Visualization observer readout
Local Sidereal Time
00:43:33
Azimuth
Unknown
Elevation
Unknown
Doppler factor
Unknown
Orbital elements
Apogee altitude
517.952 km
Perigee altitude
515.406 km
Semi-major axis
6,894.816 km
Eccentricity
0.00018
Inclination
53.097°
RAAN
10.3914°
Arg. of periapsis
80.1763°
True anomaly
39.53477°
Mean anomaly
39.5213°
Eccentric anomaly
39.52804°
Mean motion
3.79105 °/min
Orbital period
94.96 mins
BSTAR
0.05598
Loading maneuver chart data...
Computing Atmospheric mass density...

Documentation

Showing up to 5 results
|